TimeCDT,TemperatureF,Dew PointF,Humidity,Sea Level PressureIn,VisibilityMPH,Wind Direction,Wind SpeedMPH,Gust SpeedMPH,PrecipitationIn,Events,Conditions,WindDirDegrees,DateUTC
12:55 AM,37.0,32.0,82,30.04,10.0,South,3.5,-,N/A,,Overcast,180,2013-10-22 05:55:00
1:55 AM,37.9,34.0,86,30.03,10.0,Calm,Calm,-,N/A,,Overcast,0,2013-10-22 06:55:00
2:55 AM,39.0,35.1,86,30.02,10.0,South,3.5,-,N/A,,Overcast,170,2013-10-22 07:55:00
3:55 AM,39.9,34.0,79,29.99,10.0,South,4.6,-,N/A,,Overcast,180,2013-10-22 08:55:00
4:55 AM,42.1,33.1,70,29.96,10.0,South,6.9,-,N/A,,Overcast,180,2013-10-22 09:55:00
5:55 AM,44.1,34.0,68,29.94,10.0,South,6.9,-,N/A,,Overcast,190,2013-10-22 10:55:00
6:55 AM,44.1,35.1,71,29.91,10.0,SSW,9.2,-,N/A,,Overcast,200,2013-10-22 11:55:00
7:55 AM,43.0,37.9,82,29.89,8.0,SSW,10.4,-,0.01,Rain,Light Rain,200,2013-10-22 12:55:00
8:55 AM,43.0,39.0,86,29.89,10.0,SSW,5.8,-,0.02,,Overcast,200,2013-10-22 13:55:00
9:55 AM,46.0,42.1,86,29.88,10.0,Variable,5.8,-,N/A,,Overcast,0,2013-10-22 14:55:00
10:55 AM,51.1,43.0,74,29.87,10.0,WSW,8.1,-,N/A,,Mostly Cloudy,250,2013-10-22 15:55:00
11:55 AM,54.0,41.0,62,29.86,10.0,West,11.5,18.4,N/A,,Overcast,280,2013-10-22 16:55:00
12:55 PM,52.0,39.9,63,29.87,10.0,NNW,10.4,-,N/A,,Overcast,330,2013-10-22 17:55:00
1:55 PM,50.0,39.0,66,29.88,10.0,NW,15.0,24.2,N/A,,Overcast,310,2013-10-22 18:55:00
2:46 PM,50.0,39.2,66,29.87,10.0,NW,16.1,21.9,N/A,,Overcast,310,2013-10-22 19:46:00
2:55 PM,50.0,39.9,68,29.90,10.0,NNW,13.8,24.2,N/A,,Overcast,330,2013-10-22 19:55:00
3:14 PM,48.2,39.2,71,29.89,10.0,NNW,16.1,21.9,N/A,,Overcast,330,2013-10-22 20:14:00
3:55 PM,48.0,39.0,71,29.94,10.0,NNW,13.8,24.2,0.00,Rain,Light Rain,330,2013-10-22 20:55:00
4:53 PM,44.6,37.4,76,29.95,10.0,North,16.1,24.2,0.00,,Overcast,350,2013-10-22 21:53:00
4:55 PM,44.1,37.9,79,29.98,10.0,North,15.0,23.0,0.00,,Overcast,350,2013-10-22 21:55:00
5:25 PM,42.8,35.6,76,29.97,10.0,NNW,11.5,17.3,N/A,,Overcast,330,2013-10-22 22:25:00
5:55 PM,43.0,36.0,76,30.00,10.0,NNW,10.4,-,N/A,,Overcast,330,2013-10-22 22:55:00
6:55 PM,42.1,36.0,79,30.02,10.0,North,6.9,-,N/A,,Overcast,350,2013-10-22 23:55:00
7:24 PM,42.8,35.6,76,30.01,10.0,North,10.4,17.3,N/A,,Overcast,360,2013-10-23 00:24:00
7:55 PM,41.0,37.0,86,30.06,9.0,North,11.5,-,N/A,,Overcast,350,2013-10-23 00:55:00
8:23 PM,39.2,35.6,87,30.03,9.0,NNW,10.4,-,N/A,,Overcast,340,2013-10-23 01:23:00
8:33 PM,39.2,35.6,87,30.04,10.0,NNW,10.4,-,N/A,,Overcast,340,2013-10-23 01:33:00
8:55 PM,39.0,35.1,86,30.07,9.0,North,9.2,-,N/A,,Overcast,350,2013-10-23 01:55:00
9:11 PM,37.4,35.6,93,30.04,10.0,NNW,11.5,-,N/A,,Overcast,340,2013-10-23 02:11:00
9:50 PM,37.4,33.8,87,30.06,10.0,NW,8.1,-,N/A,,Overcast,320,2013-10-23 02:50:00
9:55 PM,37.9,33.1,83,30.08,10.0,NNW,9.2,-,N/A,,Overcast,330,2013-10-23 02:55:00
10:04 PM,37.4,33.8,87,30.06,10.0,NNW,10.4,-,N/A,,Overcast,340,2013-10-23 03:04:00
10:55 PM,36.0,32.0,86,30.08,10.0,NW,4.6,-,N/A,,Mostly Cloudy,320,2013-10-23 03:55:00
11:55 PM,32.0,30.0,92,30.09,10.0,WNW,5.8,-,N/A,,Clear,290,2013-10-23 04:55:00